Location: ??
(35.5672°N, 139.6509°E)
Time: 11:38:14
(UTC+00:00)

CZ-2D R/B - Pass Details

Date: 03 August 2024
Orbit: 790 x 842 km, 98.8° (Epoch: 08 September)

Event Time Altitude Azimuth Distance (km) Brightness Sun altitude
Rises 16:01:20 0° 23° (NNE) 3,314 6.3 -34.4°
Reaches altitude 10° 16:03:51 10° 32° (NNE) 2,387 5.3 -34.2°
Enters shadow 16:07:26 32° 70° (ENE) 1,368 3.5 -33.9°
